Regional Weather Roundup
Issued by NWS

Home | Current Version | Previous Version | Graphics & Text | Print | Product List | Glossary On
Versions: 1 2 3 4 5 6 7 8 9 10 11 12 13 14 15 16 17 18 19 20 21 22 23 24 25 26 27 28 29 30 31 32 33 34 35 36 37 38 39 40 41 42 43 44 45 46 47 48 49 50
000
ASUS44 KMEG 061000
RWRTN
TENNESSEE HOURLY STATE WEATHER ROUNDUP
NATIONAL WEATHER SERVICE MEMPHIS TN
400 AM CST SAT FEB 06 2016

TNZ002-004-019-021-049-052-054-088>092-061100-
WEST TENNESSEE

CITY           SKY/WX    TMP DP  RH WIND       PRES   REMARKS
MEMPHIS INTL   CLOUDY    35  26  69 CALM      30.35S
NWS MEMPHIS      N/A     31 N/A N/A MISG        N/A
JACKSON        CLEAR     26  23  88 CALM      30.36S
DYERSBURG      CLEAR     30  25  80 CALM      30.37S
UNION CITY     CLEAR     27  25  93 CALM      30.34R
PARIS          CLEAR     30  19  64 CALM      30.35S
LEXINGTON      CLEAR     27  23  86 CALM      30.35R
$$

TNZ008-025-027-028-033-062-065-066-061100-
NORTH MIDDLE TENNESSEE

CITY           SKY/WX    TMP DP  RH WIND       PRES   REMARKS
NASHVILLE      PTCLDY    30  22  72 CALM      30.37F
CLARKSVILLE    CLEAR     28  23  81 CALM      30.35F
CROSSVILLE     CLOUDY    27  16  63 CALM      30.34S
$$

TNZ061-075-076-078-094-096-097-061100-
SOUTH MIDDLE TENNESSEE

CITY           SKY/WX    TMP DP  RH WIND       PRES   REMARKS
TULLAHOMA      CLEAR     27  23  86 CALM      30.36S
WINCHESTER     CLEAR     25  21  86 CALM      30.37S
COLUMBIA       CLEAR     27  27 100 CALM      30.35F
SHELBYVILLE    CLEAR     28  25  86 E6        30.38S WCI  22
$$

TNZ017-018-042-046-047-061100-
NORTHEAST TENNESSEE

CITY           SKY/WX    TMP DP  RH WIND       PRES   REMARKS
TRI CITIES     MOCLDY    25  19  78 NE3       30.37S
$$

TNZ012-013-036-069-073-074-061100-
CENTRAL EAST TENNESSEE

CITY           SKY/WX    TMP DP  RH WIND       PRES   REMARKS
KNOXVILLE      CLOUDY    29  21  72 N5        30.37R WCI  24
OAK RIDGE      PTCLDY    28  22  78 CALM      30.40R
GATLINBURG       N/A     25  19  80 CALM      30.35F
$$

TNZ083-085-099-061100-
SOUTHEAST TENNESSEE

CITY           SKY/WX    TMP DP  RH WIND       PRES   REMARKS
CHATTANOOGA    CLOUDY    29  24  82 E3        30.37S
$$

SKY/WX REPORTED AS FAIR MEANS FEW OR NO CLOUDS BELOW
12 THOUSAND FEET.




USA.gov is the U.S. government's official web portal to all federal, state and local government web resources and services.